星链-5466 (STARLINK-5466 )

导读

STARLINK-5466是美国SpaceX公司星链星座的一员,于2022年12月17日发射升空。作为星链互联网卫星,它旨在为全球提供高速低延迟宽带服务,尤其覆盖偏远与网络基础设施匮乏地区。该卫星加入庞大星链组网,推动全球卫星互联网覆盖建设,是SpaceX星链计划批量部署中的一颗卫星。

基本信息
目录编号:
54765
目录名称:
STARLINK-5466
国际标识:
2022-175H
轨道中心:
EARTH
卫星名称:
星链-5466
卫星全名:
星链-5466 (STARLINK-5466 )
卫星状态:
已陨落 最后检测时间 2025-01-09
发射日期:
2022-12-17 UTC
国别 :
美国 (US)
星等 :
--
该卫星已列入 空间交会检测服务 Space Conjunction Data Service (SCDS) ,当前飞行风险评估等级: 无高风险
轨道信息
数据来源 国际轨道数据
星历时间: 2025-01-09T07:54:00+0800
轨道信息已过期611天
半长轴: 6530.888km
偏心率: 0.0001776
轨道倾角: 53.200°
近地点辐角 356.322°
升交点赤经 124.644°
平近点角 143.298°
近地点: 151.593km
远地点: 153.913km
周期: 87.542分钟
每日圈数: 16.449189
详细信息
固有亮度:
5
最大亮度:
2.5
卫星平台:
Starlink v1.5
覆盖范围:
全球
运营商:
太空探索技术公司
运营商所在国:
美国
制造商(研发单位):
太空探索技术公司
制造商所在国:
美国
使用方式:
暂无
卫星简介
星链(Starlink)计划是由太空探索技术公司(SpaceX)提出的一个巨型低轨卫星互联网星座项目,计划在2019年至2024年间在太空搭建由约1.2万颗卫星组成的“星链”网络,其中1584颗将部署在地球上空550千米处的近地轨道,并从2020年开始工作。该卫星仍在工作。
与全量物体交会距离演化趋势
与全量物体交会风险概率演化趋势